Location: Az?znagar
(16.8373°N, 80.5091°E)
Time: 17:31:59
(UTC+00:00)

CZ-4C R/B - Pass Details

Date: 10 July 2022
Orbit: 395 x 462 km, 97.7° (Epoch: 09 August)

Event Time Altitude Azimuth Distance (km) Brightness Sun altitude
Rises 13:56:59 0° 7° (N) 2,473 6.9 -9.8°
Reaches altitude 10° 13:59:01 10° 5° (N) 1,605 6.0 -10.2°
Maximum altitude 14:02:27 66° 282° (WNW) 507 3.4 -11.0°
Drops below altitude 10° 14:05:53 10° 199° (SSW) 1,611 5.6 -11.7°
Sets 14:07:56 0° 197° (SSW) 2,484 6.6 -12.1°
